TimeCST,TemperatureF,Dew PointF,Humidity,Sea Level PressureIn,VisibilityMPH,Wind Direction,Wind SpeedMPH,Gust SpeedMPH,PrecipitationIn,Events,Conditions,WindDirDegrees,DateUTC
12:15 AM,50.0,39.2,66,30.16,10.0,Calm,Calm,-,N/A,,Clear,0,2012-11-06 06:15:00
12:35 AM,48.2,39.2,71,30.16,10.0,Calm,Calm,-,N/A,,Clear,0,2012-11-06 06:35:00
12:55 AM,46.4,39.2,76,30.16,10.0,North,3.5,-,N/A,,Clear,350,2012-11-06 06:55:00
1:15 AM,44.6,39.2,81,30.16,10.0,Calm,Calm,-,N/A,,Clear,0,2012-11-06 07:15:00
1:35 AM,46.4,39.2,76,30.16,10.0,Calm,Calm,-,N/A,,Clear,0,2012-11-06 07:35:00
1:55 AM,46.4,39.2,76,30.16,10.0,Calm,Calm,-,N/A,,Clear,0,2012-11-06 07:55:00
2:15 AM,46.4,39.2,76,30.16,10.0,Calm,Calm,-,N/A,,Clear,0,2012-11-06 08:15:00
2:35 AM,42.8,37.4,81,30.15,10.0,Calm,Calm,-,N/A,,Clear,0,2012-11-06 08:35:00
2:55 AM,44.6,39.2,81,30.15,10.0,Calm,Calm,-,N/A,,Clear,0,2012-11-06 08:55:00
3:15 AM,44.6,37.4,76,30.14,10.0,Calm,Calm,-,N/A,,Clear,0,2012-11-06 09:15:00
3:35 AM,44.6,37.4,76,30.15,10.0,West,3.5,-,N/A,,Clear,270,2012-11-06 09:35:00
3:55 AM,42.8,37.4,81,30.15,10.0,Calm,Calm,-,N/A,,Clear,0,2012-11-06 09:55:00
4:15 AM,41.0,37.4,87,30.15,10.0,Calm,Calm,-,N/A,,Clear,0,2012-11-06 10:15:00
4:35 AM,41.0,37.4,87,30.15,10.0,Calm,Calm,-,N/A,,Clear,0,2012-11-06 10:35:00
4:55 AM,39.2,35.6,87,30.15,10.0,Calm,Calm,-,N/A,,Clear,0,2012-11-06 10:55:00
5:15 AM,39.2,35.6,87,30.16,10.0,Calm,Calm,-,N/A,,Clear,0,2012-11-06 11:15:00
5:35 AM,39.2,35.6,87,30.17,10.0,Calm,Calm,-,N/A,,Clear,0,2012-11-06 11:35:00
5:55 AM,39.2,35.6,87,30.17,10.0,Calm,Calm,-,N/A,,Clear,0,2012-11-06 11:55:00
6:15 AM,39.2,35.6,87,30.18,10.0,Calm,Calm,-,N/A,,Clear,0,2012-11-06 12:15:00
6:35 AM,39.2,35.6,87,30.18,10.0,Calm,Calm,-,N/A,,Clear,0,2012-11-06 12:35:00
6:55 AM,37.4,35.6,93,30.19,10.0,Calm,Calm,-,N/A,,Clear,0,2012-11-06 12:55:00
7:15 AM,37.4,35.6,93,30.20,10.0,Calm,Calm,-,N/A,,Clear,0,2012-11-06 13:15:00
7:35 AM,41.0,37.4,87,30.22,10.0,Calm,Calm,-,N/A,,Clear,0,2012-11-06 13:35:00
7:55 AM,44.6,39.2,81,30.23,10.0,Calm,Calm,-,N/A,,Clear,0,2012-11-06 13:55:00
8:15 AM,48.2,42.8,82,30.24,10.0,Calm,Calm,-,N/A,,Clear,0,2012-11-06 14:15:00
8:55 AM,53.6,39.2,58,30.25,10.0,Calm,Calm,-,N/A,,Clear,0,2012-11-06 14:55:00
9:15 AM,57.2,41.0,55,30.24,10.0,Calm,Calm,-,N/A,,Clear,0,2012-11-06 15:15:00
9:35 AM,60.8,39.2,45,30.24,10.0,SSW,3.5,-,N/A,,Clear,210,2012-11-06 15:35:00
9:55 AM,62.6,37.4,39,30.24,10.0,Calm,Calm,-,N/A,,Clear,0,2012-11-06 15:55:00
10:15 AM,64.4,37.4,37,30.24,10.0,Calm,Calm,-,N/A,,Clear,0,2012-11-06 16:15:00
10:35 AM,66.2,39.2,37,30.24,10.0,SW,4.6,-,N/A,,Clear,220,2012-11-06 16:35:00
10:55 AM,66.2,41.0,40,30.24,10.0,East,3.5,-,N/A,,Clear,100,2012-11-06 16:55:00
11:15 AM,68.0,39.2,35,30.23,10.0,Calm,Calm,-,N/A,,Clear,0,2012-11-06 17:15:00
11:35 AM,69.8,39.2,33,30.22,10.0,Calm,Calm,-,N/A,,Clear,0,2012-11-06 17:35:00
11:55 AM,71.6,39.2,31,30.21,10.0,West,4.6,-,N/A,,Clear,260,2012-11-06 17:55:00
12:15 PM,71.6,39.2,31,30.20,10.0,SW,5.8,-,N/A,,Clear,220,2012-11-06 18:15:00
12:35 PM,73.4,39.2,29,30.18,10.0,SSW,3.5,-,N/A,,Clear,200,2012-11-06 18:35:00
12:55 PM,75.2,41.0,29,30.17,10.0,SSW,5.8,-,N/A,,Clear,200,2012-11-06 18:55:00
1:15 PM,77.0,41.0,28,30.15,10.0,SW,8.1,-,N/A,,Clear,230,2012-11-06 19:15:00
1:35 PM,78.8,39.2,24,30.14,10.0,West,5.8,-,N/A,,Clear,260,2012-11-06 19:35:00
1:55 PM,78.8,39.2,24,30.14,10.0,WNW,5.8,-,N/A,,Clear,290,2012-11-06 19:55:00
2:15 PM,78.8,39.2,24,30.13,10.0,West,5.8,-,N/A,,Clear,280,2012-11-06 20:15:00
2:35 PM,78.8,39.2,24,30.13,10.0,West,5.8,-,N/A,,Clear,280,2012-11-06 20:35:00
2:55 PM,80.6,39.2,23,30.12,10.0,West,4.6,-,N/A,,Clear,260,2012-11-06 20:55:00
3:15 PM,80.6,39.2,23,30.11,10.0,West,8.1,-,N/A,,Clear,270,2012-11-06 21:15:00
3:35 PM,80.6,39.2,23,30.11,10.0,WSW,4.6,-,N/A,,Clear,240,2012-11-06 21:35:00
3:55 PM,80.6,39.2,23,30.11,10.0,WNW,4.6,-,N/A,,Clear,290,2012-11-06 21:55:00
4:15 PM,80.6,39.2,23,30.10,10.0,NW,4.6,-,N/A,,Clear,320,2012-11-06 22:15:00
4:35 PM,80.6,39.2,23,30.10,10.0,South,3.5,-,N/A,,Clear,180,2012-11-06 22:35:00
4:55 PM,78.8,41.0,26,30.11,10.0,South,3.5,-,N/A,,Clear,180,2012-11-06 22:55:00
5:15 PM,78.8,42.8,28,30.11,10.0,Calm,Calm,-,N/A,,Clear,0,2012-11-06 23:15:00
5:35 PM,73.4,44.6,36,30.11,10.0,Calm,Calm,-,N/A,,Clear,0,2012-11-06 23:35:00
5:55 PM,69.8,44.6,40,30.11,10.0,SSE,3.5,-,N/A,,Clear,160,2012-11-06 23:55:00
6:15 PM,66.2,44.6,46,30.12,10.0,Calm,Calm,-,N/A,,Clear,0,2012-11-07 00:15:00
6:35 PM,62.6,44.6,52,30.12,3.0,Calm,Calm,-,N/A,,Clear,0,2012-11-07 00:35:00
6:55 PM,60.8,46.4,59,30.13,10.0,Calm,Calm,-,N/A,,Clear,0,2012-11-07 00:55:00
7:15 PM,57.2,44.6,63,30.14,7.0,North,3.5,-,N/A,,Clear,10,2012-11-07 01:15:00
7:35 PM,57.2,44.6,63,30.14,10.0,North,5.8,-,N/A,,Clear,360,2012-11-07 01:35:00
7:55 PM,55.4,44.6,67,30.15,10.0,North,3.5,-,N/A,,Clear,360,2012-11-07 01:55:00
8:15 PM,57.2,44.6,63,30.16,10.0,Calm,Calm,-,N/A,,Clear,0,2012-11-07 02:15:00
8:55 PM,55.4,44.6,67,30.16,10.0,Calm,Calm,-,N/A,,Clear,0,2012-11-07 02:55:00
9:15 PM,55.4,42.8,63,30.16,9.0,Calm,Calm,-,N/A,,Clear,0,2012-11-07 03:15:00
9:35 PM,51.8,44.6,76,30.17,9.0,Calm,Calm,-,N/A,,Clear,0,2012-11-07 03:35:00
9:55 PM,51.8,42.8,71,30.17,7.0,Calm,Calm,-,N/A,,Clear,0,2012-11-07 03:55:00
10:15 PM,53.6,42.8,67,30.17,10.0,Calm,Calm,-,N/A,,Clear,0,2012-11-07 04:15:00
10:35 PM,51.8,42.8,71,30.17,8.0,Calm,Calm,-,N/A,,Clear,0,2012-11-07 04:35:00
10:55 PM,50.0,42.8,76,30.17,5.0,North,5.8,-,N/A,,Clear,10,2012-11-07 04:55:00
11:15 PM,48.2,42.8,82,30.17,10.0,North,3.5,-,N/A,,Clear,360,2012-11-07 05:15:00
11:35 PM,48.2,42.8,82,30.17,10.0,Calm,Calm,-,N/A,,Clear,0,2012-11-07 05:35:00
11:55 PM,50.0,42.8,76,30.17,10.0,Calm,Calm,-,N/A,,Clear,0,2012-11-07 05:55:00